Location: Ellingshausen
(50.5460°N, 10.4723°E)
Time: 10:15:49
(UTC+00:00)

Cosmos 1610 Rocket - Pass Details

Date: 18 January 2026
Orbit: 953 x 1000 km, 82.9° (Epoch: 18 February)

Event Time Altitude Azimuth Distance (km) Brightness Sun altitude
Rises 05:22:53 0° 196° (SSW) 3,616 7.5 -16.6°
Reaches altitude 10° 05:25:22 10° 198° (SSW) 2,674 6.7 -16.2°
Maximum altitude 05:31:27 69° 282° (WNW) 1,021 4.4 -15.3°
Drops below altitude 10° 05:37:38 10° 6° (N) 2,707 6.7 -14.3°
Sets 05:40:10 0° 9° (N) 3,663 7.4 -13.9°
